404P/Bressi (2023)

Japanese version
Home page
Updated on January 26, 2025

---------------------------------------------------------------------

* Profile

Designation 404P/2020 M6
Recovery Date June 17, 2020
Magnitude 22.1 mag
Recoverer Pan-STARRS 1 telescope (Haleakala)

* Pictures

* Orbital Elements

Epoch 2024 Mar. 31.0 TT = JDT 2460400.5
T 2023 Nov. 4.07959 TT                                  Rudenko
q   4.1326823            (2000.0)            P               Q
n   0.09584146     Peri.  169.36777     +0.34912648     -0.92195497
a   4.7289760      Node   260.03608     +0.84677379     +0.38702342
e   0.1260936      Incl.    9.80102     +0.40135377     -0.01455673
P  10.3
>From 526 observations 2011 Oct. 24-2024 Apr. 10, mean residual 1".1.

* Magnitudes Graph

        m1 = 3.0 + 5 log d + 20 log r

---------------------------------------------------------------------

The orbital elements are published on M.P.E.C. 2024-J304.
The magnitudes graphs are made with Comet for Windows.

---------------------------------------------------------------------

Copyright(C) Seiichi Yoshida (comet@aerith.net). All rights reserved.